Lid_Strength_Index
6 5 6 8 9 7 10 9 11 10 8 6 6 6 5 6 6 6 5 4 4 3 3 3 2 2 2 2 2 1 1 1
7 5 5 7 6 10 10 14 15 11 10 10 7 7 6 6 7 7 6 5 3 3 3 2 2 2 1 1 2 1 1 1
8 9 8 8 9 8 8 10 13 13 11 6 6 6 5 6 7 7 6 5 4 3 3 2 2 2 2 2 2 2 1 1
9 7 6 7 8 8 12 13 10 11 10 6 5 5 5 4 5 5 5 5 5 3 3 2 2 2 2 2 2 1 1 1
10 8 7 8 9 8 8 8 12 12 11 5 5 5 4 4 4 4 4 5 5 4 3 3 2 2 2 2 2 1 1 1
13 10 8 9 8 8 8 11 10 10 9 7 6 8 6 5 5 4 4 3 3 3 3 3 2 2 2 2 1 1 1 1
9 9 9 9 8 8 10 9 11 10 9 10 9 8 7 5 5 4 4 4 4 4 4 3 3 2 2 2 1 1 2 2
11 9 9 10 8 8 8 9 9 9 10 8 7 6 6 6 5 5 5 4 4 4 3 4 3 3 2 2 2 1 2 2
13 9 10 12 9 8 8 8 9 11 9 7 7 6 7 6 6 5 5 4 4 4 3 3 3 3 2 2 1 2 2 2
13 11 18 9 6 6 7 7 8 9 8 8 7 6 5 5 5 5 4 4 4 3 3 2 2 2 2 1 2 2 2 2
15 13 12 10 9 9 10 8 7 8 7 7 6 5 7 5 4 4 4 3 3 3 2 2 2 2 2 2 2 2 2 2
11 15 16 12 7 6 6 12 7 7 7 7 6 9 9 6 4 4 3 3 3 2 2 2 2 2 2 2 2 3 2 2
13 13 10 8 7 5 13 12 6 6 6 7 9 7 6 5 5 4 3 2 2 2 3 2 3 2 3 3 3 2 1 1
12 14 15 6 6 10 8 5 5 5 5 6 5 6 6 6 5 4 3 3 3 3 3 2 3 3 4 3 3 2 1 2
12 12 7 6 7 6 4 5 5 5 4 4 5 5 5 5 5 5 3 3 3 4 3 3 3 4 5 6 5 4 2 2
10 7 7 6 5 5 5 5 4 4 4 4 5 4 4 4 4 5 4 4 3 3 3 4 4 7 7 6 5 4 2 2
9 7 8 6 6 5 5 4 4 4 4 4 5 4 4 4 4 3 3 3 3 3 3 4 4 6 7 7 6 5 2 2
11 8 9 9 7 5 5 5 5 5 5 5 4 4 4 4 3 3 3 2 3 2 3 4 4 5 7 8 8 7 5 4
9 7 7 7 6 6 7 6 5 4 4 6 4 4 3 4 3 3 3 3 3 3 3 4 4 6 7 7 8 8 7 7